sat.trackr.live / text

‹ back to catalog

LEMUR-2-AMANDA-SVANTE

NORAD 48269 · 2021-034B

PAYLOAD ACTIVE UNKNOWN

§ Identity

Operator
Country
US
Launch date
2021-04-29
Launch site
FRGUI
Launch vehicle
Mass (kg)
RCS (m²)

Purposes: earth_obs

External: N2YO · Heavens-Above · Gunter

§ Orbital elements

Epoch: 2026-09-09T17:50:25.135008Z

Period
93.55 min
Inclination
97.5709°
Eccentricity
0.0000790
Mean motion
15.39301823 rev/d
Perigee alt
447.6 km
Apogee alt
448.7 km
Semi-major
6,826.3 km
B*
6.6507e-4
RAAN
333.5446°
Arg perigee
318.3881°
Mean anomaly
41.7304°
Rev number
29,404

§ Raw data

LEMUR-2-AMANDA-SVANTE1 48269U 21034B   26252.74334647  .00025905  00000+0  66507-3 0  99912 48269  97.5709 333.5446 0000790 318.3881  41.7304 15.39301823294047

JSON: /api/v1/satellites/48269 · /tle

For live sub-satellite position, see the globe view (requires WebGL).

§ Visibility from observer

Set your observer location to see the next 7 days of passes ≥ 10°. The values pass through the URL so the page stays shareable.

No JS? Fill the form by hand. The geolocation button needs JavaScript.

§ Radio — SatNOGS DB

ModeDescriptionDownlinkUplink
FM Mode U - Transmitter 401.100 MHz

1 transmitter · refreshed weekly from db.satnogs.org